Time,TemperatureF,DewpointF,PressureIn,WindDirection,WindDirectionDegrees,WindSpeedMPH,WindSpeedGustMPH,Humidity,HourlyPrecipIn,Conditions,Clouds,dailyrainin,SoftwareType,DateUTC
2013-07-11 00:01:00,72.0,70.0,29.98,SSE,168,0.0,-999.0,95,-99.99,,,-99.99,,2013-07-11 04:01:00,
2013-07-11 00:12:00,72.0,70.0,29.97,SSE,168,0.0,-999.0,95,-99.99,,,-99.99,,2013-07-11 04:12:00,
2013-07-11 00:42:00,72.0,70.0,29.98,SSE,168,0.0,-999.0,95,-99.99,,,-99.99,,2013-07-11 04:42:00,
2013-07-11 01:02:00,72.0,70.0,29.97,SSE,168,0.0,-999.0,95,-99.99,,,-99.99,,2013-07-11 05:02:00,
2013-07-11 01:12:00,71.0,69.0,29.97,SSE,168,0.0,-999.0,95,-99.99,,,-99.99,,2013-07-11 05:12:00,
2013-07-11 01:22:00,71.0,69.0,29.97,SSE,168,0.0,-999.0,95,-99.99,,,-99.99,,2013-07-11 05:22:00,
2013-07-11 01:43:00,71.0,69.0,29.96,SSE,168,0.0,-999.0,95,-99.99,,,-99.99,,2013-07-11 05:43:00,
2013-07-11 01:52:00,71.0,69.0,29.96,SSE,168,0.0,-999.0,95,-99.99,,,-99.99,,2013-07-11 05:52:00,
2013-07-11 02:01:00,71.0,69.0,29.96,SSE,168,0.0,-999.0,95,-99.99,,,-99.99,,2013-07-11 06:01:00,
2013-07-11 02:12:00,71.0,69.0,29.96,SSE,168,0.0,-999.0,95,-99.99,,,-99.99,,2013-07-11 06:12:00,
2013-07-11 02:22:00,71.0,69.0,29.96,SSE,168,0.0,-999.0,95,-99.99,,,-99.99,,2013-07-11 06:22:00,
2013-07-11 02:32:00,71.0,70.0,29.96,SSE,168,0.0,-999.0,96,-99.99,,,-99.99,,2013-07-11 06:32:00,
2013-07-11 02:43:00,71.0,70.0,29.96,SSE,168,0.0,-999.0,96,-99.99,,,-99.99,,2013-07-11 06:43:00,
2013-07-11 02:53:00,71.0,70.0,29.96,SSE,168,0.0,-999.0,96,-99.99,,,-99.99,,2013-07-11 06:53:00,
2013-07-11 03:02:00,71.0,70.0,29.95,SSE,168,0.0,-999.0,96,-99.99,,,-99.99,,2013-07-11 07:02:00,
2013-07-11 03:12:00,71.0,70.0,29.95,SSE,168,0.0,-999.0,96,-99.99,,,-99.99,,2013-07-11 07:12:00,
2013-07-11 03:22:00,71.0,70.0,29.95,SSE,168,0.0,-999.0,96,-99.99,,,-99.99,,2013-07-11 07:22:00,
2013-07-11 03:32:00,71.0,70.0,29.96,SSE,168,0.0,-999.0,96,-99.99,,,-99.99,,2013-07-11 07:32:00,
2013-07-11 03:45:00,71.0,70.0,29.96,SSE,168,0.0,-999.0,96,-99.99,,,-99.99,,2013-07-11 07:45:00,
2013-07-11 03:53:00,71.0,70.0,29.96,SSE,168,0.0,-999.0,96,-99.99,,,-99.99,,2013-07-11 07:53:00,
2013-07-11 04:02:00,71.0,70.0,29.96,SSE,168,0.0,-999.0,96,-99.99,,,-99.99,,2013-07-11 08:02:00,
2013-07-11 04:12:00,71.0,70.0,29.96,SSE,168,0.0,-999.0,96,-99.99,,,-99.99,,2013-07-11 08:12:00,
2013-07-11 04:22:00,71.0,69.0,29.96,SSE,168,0.0,-999.0,95,-99.99,,,-99.99,,2013-07-11 08:22:00,
2013-07-11 04:34:00,70.0,68.0,29.95,SSE,168,0.0,-999.0,95,-99.99,,,-99.99,,2013-07-11 08:34:00,
2013-07-11 04:43:00,70.0,68.0,29.95,SSE,168,0.0,-999.0,95,-99.99,,,-99.99,,2013-07-11 08:43:00,
2013-07-11 04:53:00,70.0,68.0,29.95,SSE,168,0.0,-999.0,95,-99.99,,,-99.99,,2013-07-11 08:53:00,
2013-07-11 05:03:00,70.0,68.0,29.95,SSE,168,0.0,-999.0,95,-99.99,,,-99.99,,2013-07-11 09:03:00,
2013-07-11 05:12:00,70.0,68.0,29.95,SSE,168,0.0,-999.0,95,-99.99,,,-99.99,,2013-07-11 09:12:00,
2013-07-11 05:21:00,70.0,68.0,29.95,SSE,168,0.0,-999.0,95,-99.99,,,-99.99,,2013-07-11 09:21:00,
2013-07-11 05:33:00,70.0,68.0,29.95,SSE,168,0.0,-999.0,95,-99.99,,,-99.99,,2013-07-11 09:33:00,
2013-07-11 05:43:00,70.0,69.0,29.95,SSE,168,0.0,-999.0,96,-99.99,,,-99.99,,2013-07-11 09:43:00,
2013-07-11 05:53:00,70.0,68.0,29.95,SSE,168,0.0,-999.0,95,-99.99,,,-99.99,,2013-07-11 09:53:00,
2013-07-11 06:01:00,70.0,68.0,29.95,SSE,168,0.0,-999.0,95,-99.99,,,-99.99,,2013-07-11 10:01:00,
2013-07-11 06:12:00,69.0,68.0,29.95,SSE,168,0.0,-999.0,96,-99.99,,,-99.99,,2013-07-11 10:12:00,
2013-07-11 06:22:00,69.0,68.0,29.95,SSE,168,0.0,-999.0,96,-99.99,,,-99.99,,2013-07-11 10:22:00,
2013-07-11 06:33:00,69.0,68.0,29.95,SSE,168,0.0,-999.0,96,-99.99,,,-99.99,,2013-07-11 10:33:00,
2013-07-11 06:43:00,69.0,68.0,29.96,SSE,168,0.0,-999.0,96,-99.99,,,-99.99,,2013-07-11 10:43:00,
2013-07-11 06:52:00,69.0,68.0,29.96,SSE,168,0.0,-999.0,96,-99.99,,,-99.99,,2013-07-11 10:52:00,
2013-07-11 07:02:00,69.0,68.0,29.96,SSE,168,0.0,-999.0,96,-99.99,,,-99.99,,2013-07-11 11:02:00,
2013-07-11 07:12:00,70.0,69.0,29.96,SSE,168,0.0,-999.0,96,-99.99,,,-99.99,,2013-07-11 11:12:00,
2013-07-11 07:22:00,70.0,69.0,29.96,South,171,1.0,-999.0,96,-99.99,,,-99.99,,2013-07-11 11:22:00,
2013-07-11 07:32:00,70.0,69.0,29.96,South,171,1.0,-999.0,96,-99.99,,,-99.99,,2013-07-11 11:32:00,
2013-07-11 07:43:00,70.0,69.0,29.97,South,171,0.0,-999.0,96,-99.99,,,-99.99,,2013-07-11 11:43:00,
2013-07-11 07:53:00,70.0,69.0,29.98,South,171,0.0,-999.0,96,-99.99,,,-99.99,,2013-07-11 11:53:00,
2013-07-11 08:01:00,70.0,69.0,29.98,South,171,0.0,-999.0,96,-99.99,,,-99.99,,2013-07-11 12:01:00,
2013-07-11 08:12:00,70.0,69.0,29.98,South,173,0.0,-999.0,96,-99.99,,,-99.99,,2013-07-11 12:12:00,
2013-07-11 08:22:00,70.0,69.0,29.98,South,175,0.0,-999.0,96,-99.99,,,-99.99,,2013-07-11 12:22:00,
2013-07-11 08:33:00,70.0,69.0,29.98,South,175,0.0,-999.0,96,-99.99,,,-99.99,,2013-07-11 12:33:00,
2013-07-11 08:43:00,71.0,70.0,29.98,SSW,196,0.0,-999.0,96,-99.99,,,-99.99,,2013-07-11 12:43:00,
2013-07-11 09:02:00,71.0,70.0,29.98,SSW,211,0.0,-999.0,96,-99.99,,,-99.99,,2013-07-11 13:02:00,
2013-07-11 09:13:00,71.0,70.0,29.98,SSW,211,0.0,-999.0,96,-99.99,,,-99.99,,2013-07-11 13:13:00,
2013-07-11 09:34:00,71.0,70.0,29.98,SSW,198,0.0,-999.0,96,-99.99,,,-99.99,,2013-07-11 13:34:00,
2013-07-11 09:45:00,72.0,71.0,29.98,SW,233,0.0,-999.0,96,-99.99,,,-99.99,,2013-07-11 13:45:00,
2013-07-11 10:05:00,72.0,70.0,29.99,WSW,252,1.0,-999.0,94,-99.99,,,-99.99,,2013-07-11 14:05:00,
2013-07-11 10:15:00,72.0,70.0,29.99,WSW,252,1.0,-999.0,94,-99.99,,,-99.99,,2013-07-11 14:15:00,
2013-07-11 10:24:00,72.0,70.0,29.98,WSW,252,1.0,-999.0,94,-99.99,,,-99.99,,2013-07-11 14:24:00,
2013-07-11 10:35:00,72.0,70.0,29.98,WSW,252,1.0,-999.0,94,-99.99,,,-99.99,,2013-07-11 14:35:00,
2013-07-11 10:45:00,74.0,71.0,29.98,WNW,282,2.0,-999.0,89,-99.99,,,-99.99,,2013-07-11 14:45:00,
2013-07-11 10:55:00,74.0,71.0,29.98,WNW,282,1.0,-999.0,89,-99.99,,,-99.99,,2013-07-11 14:55:00,
2013-07-11 11:05:00,75.0,70.0,29.98,NE,44,1.0,-999.0,84,-99.99,,,-99.99,,2013-07-11 15:05:00,
2013-07-11 11:24:00,76.0,70.0,29.98,NE,44,1.0,-999.0,83,-99.99,,,-99.99,,2013-07-11 15:24:00,
2013-07-11 11:37:00,76.0,70.0,29.98,NE,44,1.0,-999.0,83,-99.99,,,-99.99,,2013-07-11 15:37:00,
2013-07-11 11:46:00,77.0,71.0,29.98,NNW,329,0.0,-999.0,82,-99.99,,,-99.99,,2013-07-11 15:46:00,
2013-07-11 12:06:00,79.0,71.0,29.98,NE,41,2.0,-999.0,77,-99.99,,,-99.99,,2013-07-11 16:06:00,
2013-07-11 12:15:00,79.0,71.0,29.98,NNW,342,3.0,-999.0,76,-99.99,,,-99.99,,2013-07-11 16:15:00,
2013-07-11 12:25:00,79.0,70.0,29.98,NNW,342,2.0,-999.0,75,-99.99,,,-99.99,,2013-07-11 16:25:00,
2013-07-11 12:35:00,79.0,70.0,29.98,NNW,342,2.0,-999.0,75,-99.99,,,-99.99,,2013-07-11 16:35:00,
2013-07-11 12:56:00,80.0,70.0,29.98,NNW,344,3.0,-999.0,72,-99.99,,,-99.99,,2013-07-11 16:56:00,
2013-07-11 13:15:00,81.0,70.0,29.98,ENE,65,1.0,-999.0,69,-99.99,,,-99.99,,2013-07-11 17:15:00,
2013-07-11 13:26:00,80.0,69.0,29.98,NW,317,2.0,-999.0,69,-99.99,,,-99.99,,2013-07-11 17:26:00,
2013-07-11 13:38:00,80.0,69.0,29.98,NW,317,2.0,-999.0,69,-99.99,,,-99.99,,2013-07-11 17:38:00,
2013-07-11 14:05:00,82.0,69.0,29.97,NE,42,2.0,-999.0,64,-99.99,,,-99.99,,2013-07-11 18:05:00,
2013-07-11 14:15:00,81.0,69.0,29.96,ESE,109,2.0,-999.0,67,-99.99,,,-99.99,,2013-07-11 18:15:00,
2013-07-11 14:35:00,81.0,71.0,29.96,North,9,2.0,-999.0,71,-99.99,,,-99.99,,2013-07-11 18:35:00,
2013-07-11 14:46:00,82.0,67.0,29.95,ESE,107,2.0,-999.0,61,-99.99,,,-99.99,,2013-07-11 18:46:00,
2013-07-11 15:04:00,84.0,70.0,29.95,NE,50,2.0,-999.0,62,-99.99,,,-99.99,,2013-07-11 19:04:00,
2013-07-11 15:13:00,84.0,70.0,29.95,NE,50,2.0,-999.0,62,-99.99,,,-99.99,,2013-07-11 19:13:00,
2013-07-11 15:24:00,84.0,70.0,29.95,NE,50,1.0,-999.0,63,-99.99,,,-99.99,,2013-07-11 19:24:00,
2013-07-11 15:38:00,84.0,70.0,29.95,NE,50,1.0,-999.0,63,-99.99,,,-99.99,,2013-07-11 19:38:00,
2013-07-11 16:06:00,85.0,69.0,29.93,NW,322,1.0,-999.0,59,-99.99,,,-99.99,,2013-07-11 20:06:00,
2013-07-11 16:13:00,85.0,68.0,29.93,NW,322,1.0,-999.0,57,-99.99,,,-99.99,,2013-07-11 20:13:00,
2013-07-11 16:26:00,85.0,68.0,29.93,NW,322,0.0,-999.0,56,-99.99,,,-99.99,,2013-07-11 20:26:00,
2013-07-11 16:37:00,85.0,68.0,29.93,NW,322,0.0,-999.0,56,-99.99,,,-99.99,,2013-07-11 20:37:00,
2013-07-11 16:47:00,86.0,70.0,29.93,WNW,294,2.0,-999.0,59,-99.99,,,-99.99,,2013-07-11 20:47:00,
2013-07-11 16:56:00,84.0,69.0,29.93,WNW,294,3.0,-999.0,60,-99.99,,,-99.99,,2013-07-11 20:56:00,
2013-07-11 17:05:00,84.0,68.0,29.93,WNW,294,1.0,-999.0,59,-99.99,,,-99.99,,2013-07-11 21:05:00,
2013-07-11 17:15:00,84.0,68.0,29.93,WNW,294,1.0,-999.0,59,-99.99,,,-99.99,,2013-07-11 21:15:00,
2013-07-11 17:45:00,80.0,68.0,29.94,NNE,13,5.0,-999.0,67,-99.99,,,-99.99,,2013-07-11 21:45:00,
2013-07-11 18:05:00,76.0,69.0,29.95,NNE,15,3.0,-999.0,78,-99.99,,,-99.99,,2013-07-11 22:05:00,
2013-07-11 18:16:00,76.0,69.0,29.95,NNE,15,3.0,-999.0,78,-99.99,,,-99.99,,2013-07-11 22:16:00,
2013-07-11 18:47:00,77.0,70.0,29.94,NNE,25,2.0,-999.0,79,-99.99,,,-99.99,,2013-07-11 22:47:00,
2013-07-11 18:55:00,78.0,71.0,29.94,NNW,327,4.0,-999.0,78,-99.99,,,-99.99,,2013-07-11 22:55:00,
2013-07-11 19:06:00,78.0,71.0,29.94,NNW,327,4.0,-999.0,78,-99.99,,,-99.99,,2013-07-11 23:06:00,
2013-07-11 19:13:00,79.0,70.0,29.94,NNW,348,4.0,-999.0,75,-99.99,,,-99.99,,2013-07-11 23:13:00,
2013-07-11 19:35:00,79.0,70.0,29.94,NW,324,5.0,-999.0,75,-99.99,,,-99.99,,2013-07-11 23:35:00,
2013-07-11 19:46:00,79.0,70.0,29.94,North,360,3.0,-999.0,74,-99.99,,,-99.99,,2013-07-11 23:46:00,
2013-07-11 19:59:00,79.0,70.0,29.94,North,360,2.0,-999.0,75,-99.99,,,-99.99,,2013-07-11 23:59:00,
2013-07-11 20:05:00,79.0,71.0,29.94,NNE,22,2.0,-999.0,76,-99.99,,,-99.99,,2013-07-12 00:05:00,
2013-07-11 20:14:00,79.0,71.0,29.94,NNE,22,2.0,-999.0,76,-99.99,,,-99.99,,2013-07-12 00:14:00,
2013-07-11 20:26:00,78.0,70.0,29.94,NNE,22,2.0,-999.0,77,-99.99,,,-99.99,,2013-07-12 00:26:00,
2013-07-11 20:36:00,76.0,69.0,29.95,NE,44,3.0,-999.0,79,-99.99,,,-99.99,,2013-07-12 00:36:00,
2013-07-11 20:44:00,76.0,69.0,29.95,NE,44,3.0,-999.0,79,-99.99,,,-99.99,,2013-07-12 00:44:00,
2013-07-11 20:58:00,75.0,68.0,29.95,NNE,12,3.0,-999.0,80,-99.99,,,-99.99,,2013-07-12 00:58:00,
2013-07-11 21:05:00,74.0,68.0,29.96,NNE,19,2.0,-999.0,82,-99.99,,,-99.99,,2013-07-12 01:05:00,
2013-07-11 21:13:00,74.0,68.0,29.96,NNE,19,2.0,-999.0,82,-99.99,,,-99.99,,2013-07-12 01:13:00,
2013-07-11 21:26:00,74.0,68.0,29.95,NNE,19,2.0,-999.0,82,-99.99,,,-99.99,,2013-07-12 01:26:00,
2013-07-11 21:37:00,74.0,68.0,29.95,NNE,19,2.0,-999.0,82,-99.99,,,-99.99,,2013-07-12 01:37:00,
2013-07-11 21:46:00,73.0,68.0,29.95,NE,39,0.0,-999.0,84,-99.99,,,-99.99,,2013-07-12 01:46:00,
2013-07-11 21:55:00,72.0,68.0,29.96,NE,39,0.0,-999.0,86,-99.99,,,-99.99,,2013-07-12 01:55:00,
2013-07-11 22:06:00,72.0,68.0,29.96,NE,39,0.0,-999.0,86,-99.99,,,-99.99,,2013-07-12 02:06:00,
2013-07-11 22:16:00,72.0,68.0,29.96,NE,39,0.0,-999.0,87,-99.99,,,-99.99,,2013-07-12 02:16:00,
2013-07-11 22:25:00,72.0,68.0,29.96,NE,39,0.0,-999.0,87,-99.99,,,-99.99,,2013-07-12 02:25:00,
2013-07-11 22:45:00,71.0,67.0,29.97,NE,39,0.0,-999.0,88,-99.99,,,-99.99,,2013-07-12 02:45:00,
2013-07-11 22:55:00,70.0,67.0,29.98,NE,39,0.0,-999.0,89,-99.99,,,-99.99,,2013-07-12 02:55:00,
2013-07-11 23:03:00,70.0,67.0,29.98,NE,39,0.0,-999.0,89,-99.99,,,-99.99,,2013-07-12 03:03:00,
2013-07-11 23:14:00,70.0,67.0,29.98,NE,39,0.0,-999.0,90,-99.99,,,-99.99,,2013-07-12 03:14:00,
2013-07-11 23:25:00,69.0,66.0,29.98,NE,39,0.0,-999.0,90,-99.99,,,-99.99,,2013-07-12 03:25:00,
2013-07-11 23:37:00,69.0,66.0,29.98,NE,39,0.0,-999.0,90,-99.99,,,-99.99,,2013-07-12 03:37:00,
2013-07-11 23:45:00,69.0,67.0,29.98,NE,39,0.0,-999.0,92,-99.99,,,-99.99,,2013-07-12 03:45:00,
2013-07-11 23:56:00,69.0,67.0,29.98,NE,39,0.0,-999.0,92,-99.99,,,-99.99,,2013-07-12 03:56:00,